Location: Melbourne
(37.8170°S, 144.9670°E)
Time: 17:01:15
(UTC+10:00)

deb Explorer IX - All Passes

Search period start: 03 September 2014 00:00
Search period end: 13 September 2014 00:00
Orbit: 559 x 1218 km, 38.8° (Epoch: 31 August)

Date Brightness Start Highest point End Pass type
(mag) Time Alt. Az. Time Alt. Az. Time Alt. Az.
03 Sep - 11:52:20 10° NNW 11:56:17 31° NNE 12:00:47 10° E daylight
03 Sep - 13:39:25 10° WNW 13:44:16 85° NNE 13:50:09 10° E daylight
03 Sep - 15:27:31 10° W 15:32:57 83° S 15:39:34 10° E daylight
03 Sep - 17:15:42 10° W 17:21:40 61° NNW 17:28:44 10° ENE daylight
03 Sep - 19:04:50 10° W 19:10:03 24° NW 19:15:48 10° NNE visible
04 Sep - 11:49:45 10° NW 11:53:53 39° NNE 11:58:36 10° E daylight
04 Sep - 13:37:12 10° W 13:42:00 88° S 13:47:48 10° E daylight
04 Sep - 15:25:18 10° W 15:30:40 87° S 15:37:12 10° E daylight
04 Sep - 17:13:30 10° W 17:19:17 51° NNW 17:26:07 10° NE daylight
04 Sep - 19:03:07 10° WNW 19:07:33 19° NW 19:12:22 10° N visible
05 Sep - 10:02:50 10° NNE 10:04:05 11° NE 10:05:21 10° ENE daylight
05 Sep - 11:47:17 10° NW 11:51:30 49° NNE 11:56:20 10° E daylight
05 Sep - 13:34:59 10° W 13:39:44 83° S 13:45:27 10° E daylight
05 Sep - 15:23:04 10° W 15:28:22 87° NNW 15:34:48 10° ENE daylight
05 Sep - 17:11:20 10° W 17:16:52 42° NNW 17:23:24 10° NE daylight
05 Sep - 19:01:50 10° WNW 19:05:03 14° NW 19:08:26 10° N visible
06 Sep - 09:59:05 10° N 10:01:35 15° NE 10:04:10 10° ENE daylight
06 Sep - 11:44:53 10° WNW 11:49:09 60° NNE 11:54:02 10° E daylight
06 Sep - 13:32:46 10° W 13:37:28 80° S 13:43:06 10° E daylight
06 Sep - 15:20:49 10° W 15:26:03 78° NNW 15:32:23 10° ENE daylight
06 Sep - 17:09:13 10° W 17:14:27 34° NNW 17:20:32 10° NNE daylight
07 Sep - 09:55:59 10° NNW 09:59:06 20° NE 10:02:23 10° E daylight
07 Sep - 11:42:32 10° WNW 11:46:50 71° NNE 11:51:42 10° E daylight
07 Sep - 13:30:32 10° W 13:35:12 79° S 13:40:45 10° E daylight
07 Sep - 15:18:35 10° W 15:23:42 69° NNW 15:29:54 10° ENE daylight
07 Sep - 17:07:12 10° W 17:12:00 27° NNW 17:17:31 10° NNE daylight
08 Sep - 09:53:08 10° NNW 09:56:40 27° NNE 10:00:22 10° E daylight
08 Sep - 11:40:14 10° WNW 11:44:31 82° NNE 11:49:22 10° E daylight
08 Sep - 13:28:18 10° W 13:32:55 81° S 13:38:24 10° E daylight
08 Sep - 15:16:20 10° W 15:21:21 58° NNW 15:27:21 10° ENE daylight
08 Sep - 17:05:19 10° W 17:09:33 21° NNW 17:14:17 10° NNE daylight
09 Sep - 09:50:27 10° NW 09:54:15 34° NNE 09:58:13 10° E daylight
09 Sep - 11:37:57 10° W 11:42:14 89° S 11:47:01 10° E daylight
09 Sep - 13:26:03 10° W 13:30:38 86° S 13:36:02 10° E daylight
09 Sep - 15:14:08 10° W 15:18:58 48° NNW 15:24:43 10° NE daylight
09 Sep - 17:03:44 10° WNW 17:07:04 16° NW 17:10:42 10° N daylight
10 Sep - 09:47:53 10° NW 09:51:51 44° NNE 09:55:59 10° E daylight
10 Sep - 11:35:41 10° W 11:39:56 82° S 11:44:40 10° E daylight
10 Sep - 13:23:47 10° W 13:28:19 87° NNW 13:33:39 10° ENE daylight
10 Sep - 15:11:57 10° W 15:16:34 38° NNW 15:21:59 10° NE daylight
10 Sep - 17:02:59 10° NW 17:04:35 11° NW 17:06:14 10° NNW daylight
11 Sep - 07:59:30 10° N 08:01:50 14° NE 08:04:07 10° ENE daylight
11 Sep - 09:45:23 10° WNW 09:49:29 55° NNE 09:53:43 10° E daylight
11 Sep - 11:33:25 10° W 11:37:39 78° S 11:42:20 10° E daylight
11 Sep - 13:21:30 10° W 13:26:00 78° NNW 13:31:13 10° ENE daylight
11 Sep - 15:09:51 10° W 15:14:09 30° NNW 15:19:06 10° NNE daylight
12 Sep - 07:56:12 10° NNW 07:59:22 20° NNE 08:02:25 10° ENE daylight
12 Sep - 09:42:57 10° WNW 09:47:08 68° NNE 09:51:24 10° E daylight
12 Sep - 11:31:08 10° W 11:35:22 77° S 11:39:59 10° E daylight
12 Sep - 13:19:14 10° W 13:23:39 66° NNW 13:28:45 10° ENE daylight
12 Sep - 15:07:51 10° W 15:11:42 23° NNW 15:16:03 10° NNE daylight
